Radiation Dose measured at exhaust stack monitor of Fukushima Daiichi Nuclear Power Station
Date,Time,Unit 5 6 shared exhaust cylinders,Wind Direction,Wind Velocity(m/s)
2022/08/20,00:00,3.6,south-southwest,4.2
2022/08/20,00:10,3.6,south-southwest,4.4
2022/08/20,00:20,3.8,south-southwest,3.3
2022/08/20,00:30,3.6,south-southwest,4.2
2022/08/20,00:40,3.7,south-southwest,5.2
2022/08/20,00:50,3.8,south-southwest,5.6
2022/08/20,01:00,3.7,south-southwest,6.1
2022/08/20,01:10,3.6,south-southwest,5.6
2022/08/20,01:20,3.7,south-southwest,5.4
2022/08/20,01:30,3.6,south-southwest,5.4
2022/08/20,01:40,3.6,south-southwest,5.5
2022/08/20,01:50,3.7,south-southwest,5.8
2022/08/20,02:00,3.6,south-southwest,6.3
2022/08/20,02:10,3.7,south-southwest,6.0
2022/08/20,02:20,3.6,south,5.7
2022/08/20,02:30,3.7,south-southwest,6.1
2022/08/20,02:40,3.6,south-southwest,5.1
2022/08/20,02:50,3.5,south,4.7
2022/08/20,03:00,3.8,south-southwest,4.4
2022/08/20,03:10,3.7,south-southwest,5.3
2022/08/20,03:20,3.6,south,4.7
2022/08/20,03:30,3.6,south-southwest,4.2
2022/08/20,03:40,3.5,south-southwest,5.0
2022/08/20,03:50,3.8,south-southwest,4.7
2022/08/20,04:00,3.7,south-southwest,5.1
2022/08/20,04:10,3.5,south-southwest,5.8
2022/08/20,04:20,3.7,south-southwest,5.4
2022/08/20,04:30,3.7,south-southwest,4.5
2022/08/20,04:40,3.6,south,4.6
2022/08/20,04:50,3.8,south,5.3
2022/08/20,05:00,3.8,south,5.6
2022/08/20,05:10,3.8,south,6.3
2022/08/20,05:20,3.7,south,6.7
2022/08/20,05:30,3.7,south,7.5
2022/08/20,05:40,3.6,south,7.6
2022/08/20,05:50,3.6,south,7.4
2022/08/20,06:00,3.7,south,5.3
2022/08/20,06:10,3.6,south,4.7
2022/08/20,06:20,3.6,south,4.9
2022/08/20,06:30,3.8,south,5.5
2022/08/20,06:40,3.5,south,4.6
2022/08/20,06:50,3.7,south,4.2
2022/08/20,07:00,3.8,south,5.2
2022/08/20,07:10,3.8,south,4.9
2022/08/20,07:20,3.6,south,4.9
2022/08/20,07:30,3.7,south,5.2
2022/08/20,07:40,3.6,south,5.5
2022/08/20,07:50,3.7,south,6.1
2022/08/20,08:00,3.6,south,6.6
2022/08/20,08:10,3.7,south,6.2
2022/08/20,08:20,3.6,south,5.5
2022/08/20,08:30,3.7,south,6.3
2022/08/20,08:40,3.5,south,4.7
2022/08/20,08:50,3.8,south,7.1
2022/08/20,09:00,3.8,south,6.1
2022/08/20,09:10,3.7,south,6.9
2022/08/20,09:20,3.8,south-southeast,6.2
2022/08/20,09:30,3.8,south,7.8
2022/08/20,09:40,3.6,south,7.4
2022/08/20,09:50,3.6,south,7.3
2022/08/20,10:00,3.7,south,7.5
2022/08/20,10:10,3.6,south,7.8
2022/08/20,10:20,3.6,south,7.8
2022/08/20,10:30,3.6,south,10.4
2022/08/20,10:40,3.6,south,10.9
2022/08/20,10:50,3.5,south,10.7
2022/08/20,11:00,3.6,south,10.2
2022/08/20,11:10,3.6,south,9.7
2022/08/20,11:20,3.6,south,8.7
2022/08/20,11:30,3.8,south,9.4
2022/08/20,11:40,3.6,south,9.3
2022/08/20,11:50,3.6,south,9.8
2022/08/20,12:00,3.5,south,8.5
2022/08/20,12:10,3.6,south,8.4
2022/08/20,12:20,3.6,south,8.6
2022/08/20,12:30,3.7,south,10.3
2022/08/20,12:40,3.7,south,9.1
2022/08/20,12:50,3.6,south,10.2
2022/08/20,13:00,3.8,south,9.2
2022/08/20,13:10,3.6,south,9.6
2022/08/20,13:20,3.7,south,9.1
2022/08/20,13:30,3.7,south,9.0
2022/08/20,13:40,3.7,south,8.5
2022/08/20,13:50,3.6,south,8.3
2022/08/20,14:00,3.6,south,7.4
2022/08/20,14:10,3.4,south,7.2
2022/08/20,14:20,3.7,south,5.2
2022/08/20,14:30,3.7,south,3.2
2022/08/20,14:40,3.7,south-southwest,4.4
2022/08/20,14:50,3.5,south-southwest,5.1
2022/08/20,15:00,3.7,south-southwest,5.0
2022/08/20,15:10,3.7,south-southwest,6.7
2022/08/20,15:20,3.6,south-southwest,8.5
2022/08/20,15:30,3.7,south,7.5
2022/08/20,15:40,3.7,south-southwest,6.8
2022/08/20,15:50,3.6,south-southwest,6.8
2022/08/20,16:00,3.7,south-southwest,8.4
2022/08/20,16:10,3.7,south-southwest,8.9
2022/08/20,16:20,3.6,south-southwest,8.4
2022/08/20,16:30,3.6,south-southwest,7.1
2022/08/20,16:40,3.6,south-southwest,6.9
2022/08/20,16:50,3.7,south-southwest,5.0
2022/08/20,17:00,3.7,south,2.0
2022/08/20,17:10,3.7,south,3.3
2022/08/20,17:20,3.7,south,4.9
2022/08/20,17:30,3.7,south,5.1
2022/08/20,17:40,3.7,south,5.3
2022/08/20,17:50,3.7,south,6.3
2022/08/20,18:00,3.7,south,5.9
2022/08/20,18:10,3.7,south-southwest,5.6
2022/08/20,18:20,3.7,south-southwest,6.1
2022/08/20,18:30,3.6,south-southwest,6.4
2022/08/20,18:40,3.7,south-southwest,5.4
2022/08/20,18:50,3.4,south,6.4
2022/08/20,19:00,3.8,south,6.5
2022/08/20,19:10,3.6,south,7.4
2022/08/20,19:20,3.7,south,7.1
2022/08/20,19:30,3.8,south,6.6
2022/08/20,19:40,3.7,south,5.6
2022/08/20,19:50,3.7,south,4.7
2022/08/20,20:00,3.6,south,5.7
2022/08/20,20:10,3.6,south,6.0
2022/08/20,20:20,3.6,south,6.3
2022/08/20,20:30,3.7,south,4.2
2022/08/20,20:40,3.8,south,4.8
2022/08/20,20:50,3.8,south,5.1
2022/08/20,21:00,3.6,south,4.4
2022/08/20,21:10,3.5,south,4.7
2022/08/20,21:20,3.6,south,4.0
2022/08/20,21:30,3.8,south-southwest,4.0
2022/08/20,21:40,3.6,south-southwest,6.2
2022/08/20,21:50,3.7,south-southwest,4.9
2022/08/20,22:00,3.6,south-southwest,4.8
2022/08/20,22:10,3.8,south-southwest,4.6
2022/08/20,22:20,3.7,south-southwest,3.6
2022/08/20,22:30,3.7,south-southwest,4.6
2022/08/20,22:40,3.7,south-southwest,4.1
2022/08/20,22:50,3.7,south-southwest,4.8
2022/08/20,23:00,3.6,south-southwest,4.7
2022/08/20,23:10,3.6,south-southwest,2.0
2022/08/20,23:20,3.8,southwest,3.7
2022/08/20,23:30,3.6,southwest,3.4
2022/08/20,23:40,3.7,southwest,1.5
2022/08/20,23:50,3.7,southwest,1.7
